Flag for Iceland Weather past 2 weeks in Reykjavik, Iceland

Now
48 °F

Partly sunny.


Feels Like: 48 °F
Forecast: 44 / 51 °F
Wind: 2 mph from North

Location: Reykjavik Airport

Current Time: Sep 20, 2014 at 11:10:03 AM

Latest Report: Sep 20, 2014 at 10:00 AM


Visibility: N/A

Pressure: 30.24 "Hg

Humidity: 62%

Dew point: 36 °F

Location of ReykjavikLocation

Historic Weather in Reykjavik — Graph

°F

Reykjavik temperature yesterday

Maximum temperature yesterday: 52 °F (at 12:00 AM)
Minimum temperature yesterday: 46 °F (at 10:00 PM)
Average temperature yesterday: 50 °F

Past Weeks' High & Low Weather Summary

 TemperatureHumidityPressure
High57 °F (Sep 14, 3:00 PM)94% (Sep 6, 8:00 PM)30.24 "Hg (Sep 6, 8:00 PM)
Low43 °F (Sep 17, 1:00 AM)54% (Sep 15, 5:00 PM)29.50 "Hg (Sep 9, 3:00 AM)
Average51 °F80%29.94 "Hg
* Reported Sep 5 10:00 AM — Sep 20 10:00 AM, Reykjavik, Weather by CustomWeather, © 2014

Note: Actual official high and low records may vary slightly from our data, if they occured in-between our weather recording intervals... More about our weather records

Advertising

Reykjavik weather history for previous 24 hours

 ConditionsComfort  
Time TempWeatherWind HumidityBarometerVisibility
10:00 AM
Sep 20
48 °FPartly sunny.2 mph62%30.24 "HgN/A
9:00 AM46 °FScattered clouds.3 mph66%30.21 "HgN/A
8:00 AM45 °FPassing clouds.1 mph71%30.21 "HgN/A
7:00 AM46 °FPartly cloudy.12 mph66%30.21 "HgN/A
6:00 AM46 °FPartly cloudy.14 mph66%30.18 "HgN/A
5:00 AM46 °FMostly cloudy.14 mph66%30.18 "HgN/A
4:00 AM46 °FMostly cloudy.10 mph76%30.18 "HgN/A
3:00 AM46 °FOvercast.14 mph71%30.15 "HgN/A
2:00 AM46 °FPartly cloudy.15 mph71%30.15 "HgN/A
1:00 AM46 °FPartly cloudy.17 mph76%30.12 "HgN/A
12:00 AM46 °FPartly cloudy.21 mph76%30.12 "HgN/A
11:00 PM
Sep 19
46 °FPartly cloudy.20 mph82%30.09 "HgN/A
10:00 PM46 °FDrizzle. Mostly cloudy.18 mph82%30.09 "Hg6 mi
9:00 PM48 °FDrizzle. Mostly cloudy.18 mph82%30.07 "Hg6 mi
8:00 PM48 °FLight rain. Overcast.18 mph87%30.04 "Hg6 mi
7:00 PM50 °FLight rain. Broken clouds.10 mph82%30.01 "Hg2 mi
6:00 PM48 °FFog.6 mph87%30.01 "Hg5 mi
5:00 PM50 °FBroken clouds.12 mph82%29.98 "HgN/A
4:00 PM50 °FBroken clouds.10 mph82%29.98 "HgN/A
3:00 PM50 °FDrizzle. Broken clouds.12 mph88%29.95 "Hg4 mi
2:00 PM52 °FBroken clouds.12 mph82%29.95 "HgN/A
1:00 PM50 °FDrizzle. More clouds than sun.14 mph94%29.92 "HgN/A
12:00 PM50 °FDrizzle. Mostly cloudy.13 mph94%29.92 "Hg6 mi
11:00 AM50 °FMostly cloudy.7 mph94%29.92 "Hg1 mi
Weather by CustomWeather, © 2014

See weather overviewHow to use our weather pages